Temp
8 8 8 8 8 8 8 8 8 8 7 7 7 7 8 8 8 8 8 9 8 8 8 9 9 9 9 9 9 9 9 9 9 9 9 9 9 9 9 9 9 8 9
8 8 8 8 8 8 8 8 8 8 8 8 7 7 7 8 9 9 9 9 9 9 9 9 9 9 9 9 9 9 8 8 8 9 9 9 9 9 9 8 8 9 9
8 8 8 8 8 8 8 8 8 8 8 8 8 8 8 8 8 8 9 8 9 9 8 9 8 8 9 9 9 8 8 8 9 9 9 9 9 9 8 9 9 9 9
8 9 8 8 8 8 8 8 8 8 8 8 8 8 8 8 8 8 8 8 8 8 8 8 8 8 8 8 8 8 9 9 9 8 8 9 9 9 9 9 9 9 9
8 9 8 8 8 8 8 8 8 8 8 8 8 8 8 8 8 8 8 9 8 9 8 8 8 8 9 8 8 8 9 9 8 8 9 9 9 9 9 9 9 9 9
9 9 8 8 8 8 8 8 8 8 8 8 8 8 8 8 8 8 9 9 9 9 8 8 8 8 8 8 8 8 8 8 8 8 9 9 9 9 9 9 9 9 9
9 8 8 8 8 8 8 8 8 9 9 8 8 8 8 8 8 8 9 9 9 9 8 8 8 8 8 8 8 8 8 9 9 8 9 9 9 9 9 9 9 9 9
8 8 8 8 8 8 8 8 8 9 9 9 8 9 9 8 9 9 9 9 9 9 8 8 8 8 8 8 8 8 9 9 9 9 8 9 9 9 9 9 9 9 9
8 8 8 8 8 8 8 8 8 8 9 9 8 9 9 9 9 9 9 9 9 8 8 8 8 8 8 8 9 9 9 8 9 9 9 9 9 9 9 9 9 9 9
8 8 8 8 9 8 8 8 8 8 8 8 9 8 9 9 9 9 8 9 9 8 8 8 8 8 8 8 8 9 9 9 9 9 9 9 9 9 10 9 9 9 9
8 9 9 9 8 9 9 8 8 8 8 8 8 9 9 9 9 9 9 9 9 9 8 8 8 8 8 8 9 9 9 9 9 9 10 9 9 9 9 9 9 9 9
9 9 9 9 9 9 9 8 8 8 8 8 8 8 9 9 9 8 9 9 9 9 8 8 8 8 8 9 9 9 9 9 10 10 10 10 10 10 10 10 9 9 9
9 9 9 9 9 9 9 8 8 8 8 9 8 8 9 8 8 8 8 8 8 8 8 8 8 8 9 9 9 9 10 10 10 10 10 10 10 10 9 9 9 9 9
9 9 9 9 9 9 8 9 9 9 9 9 8 8 8 8 8 8 8 8 7 8 8 8 8 9 9 9 9 10 10 10 10 10 10 10 10 9 9 9 9 9 9
9 9 9 9 8 8 8 8 9 9 9 8 8 8 8 8 8 8 7 7 7 7 8 8 8 8 9 9 10 10 10 10 10 10 10 10 9 9 9 9 9 10 10
9 9 8 8 8 8 9 8 8 9 8 8 8 8 8 8 8 7 8 8 7 7 7 8 8 9 9 10 10 10 10 10 10 10 10 10 9 9 9 10 10 10 10
9 8 8 8 8 8 8 8 8 8 8 8 8 8 8 8 8 8 8 8 7 8 8 8 8 9 9 10 10 10 10 10 10 10 10 10 10 10 10 10 10 10 10
9 8 8 8 8 8 8 8 8 8 8 8 8 8 8 8 7 7 8 8 8 8 8 9 9 9 10 10 10 10 10 10 10 10 10 10 10 10 10 10 11 10 10
9 9 8 9 8 8 8 8 8 8 8 8 8 8 8 8 8 7 7 8 7 8 8 9 9 9 10 10 10 10 10 10 10 10 10 10 10 10 10 10 10 10 11
9 9 9 8 9 9 8 8 8 8 8 8 8 8 8 8 8 7 7 7 7 8 8 9 9 9 10 10 10 10 11 11 10 11 11 11 11 11 11 10 11 10 11
9 9 9 9 9 8 9 9 8 8 8 8 8 8 8 9 8 8 8 8 8 8 8 8 9 9 10 10 10 10 11 11 11 11 10 10 11 11 11 11 11 11 11
9 9 10 9 9 9 9 9 8 8 8 9 8 8 8 8 8 8 8 8 7 8 8 8 9 9 10 10 10 10 11 11 11 11 11 11 11 11 11 11 11 12 12
9 9 10 10 9 9 9 9 9 9 9 9 9 9 9 8 8 8 8 9 8 8 8 8 9 9 9 10 10 10 10 11 11 11 11 11 11 11 11 11 11 12 12
9 9 9 10 10 9 9 9 9 9 9 9 9 9 9 9 8 8 8 8 8 9 8 9 9 9 9 9 10 10 10 11 10 11 11 11 11 11 12 12 12 12 12
9 10 9 10 10 10 9 9 9 9 9 9 9 9 9 8 8 8 9 8 8 8 9 8 8 8 9 9 10 10 11 11 11 10 10 11 11 11 11 12 12 12 12
9 9 10 10 10 10 10 9 9 9 9 9 9 9 9 9 9 8 8 8 8 8 9 9 8 8 8 9 9 10 10 10 10 10 10 10 11 11 11 11 12 12 12
Height
3186 3187 3189 3191 3193 3194 3195 3195 3195 3195 3196 3196 3195 3196 3197 3198 3198 3198 3198 3198 3199 3200 3200 3200 3201 3201 3202 3202 3203 3203 3204 3205 3205 3206 3206 3206 3205 3205 3206 3207 3207 3206 3207
3188 3189 3191 3193 3195 3196 3197 3197 3198 3198 3199 3200 3200 3200 3201 3202 3202 3202 3201 3201 3202 3203 3203 3204 3205 3206 3206 3207 3207 3207 3208 3208 3209 3209 3210 3209 3209 3209 3209 3209 3210 3210 3210
3190 3191 3193 3194 3196 3197 3198 3199 3200 3200 3202 3203 3204 3204 3205 3206 3207 3206 3205 3205 3206 3206 3207 3208 3209 3209 3210 3211 3211 3211 3212 3211 3212 3213 3213 3213 3212 3212 3212 3213 3212 3213 3214
3192 3193 3195 3196 3197 3199 3199 3201 3202 3203 3204 3206 3207 3207 3208 3208 3209 3209 3209 3208 3208 3209 3211 3212 3212 3213 3213 3214 3214 3215 3215 3215 3215 3216 3216 3217 3216 3215 3216 3216 3216 3216 3216
3194 3196 3197 3198 3199 3200 3201 3203 3205 3206 3207 3209 3210 3211 3211 3213 3213 3213 3213 3212 3213 3213 3214 3215 3216 3216 3217 3217 3218 3218 3218 3218 3218 3219 3219 3219 3219 3219 3219 3220 3219 3219 3219
3196 3197 3199 3200 3201 3202 3204 3204 3206 3207 3209 3211 3213 3214 3214 3215 3215 3216 3216 3216 3217 3217 3218 3218 3219 3219 3220 3221 3221 3220 3221 3220 3221 3221 3222 3223 3222 3222 3223 3222 3222 3222 3221
3197 3198 3200 3201 3202 3204 3205 3206 3207 3209 3211 3213 3214 3215 3217 3218 3218 3218 3219 3219 3220 3220 3220 3221 3222 3222 3222 3223 3223 3223 3223 3223 3224 3224 3224 3224 3225 3226 3226 3225 3224 3224 3223
3199 3200 3202 3202 3203 3205 3207 3208 3209 3211 3212 3213 3216 3218 3219 3220 3221 3221 3222 3222 3223 3223 3224 3224 3225 3225 3225 3225 3226 3226 3226 3226 3226 3226 3226 3227 3227 3228 3228 3227 3227 3227 3226
3201 3202 3203 3204 3205 3207 3209 3210 3211 3213 3214 3216 3217 3220 3221 3222 3224 3225 3225 3226 3226 3227 3226 3227 3227 3227 3228 3229 3229 3229 3229 3228 3228 3228 3228 3229 3230 3231 3231 3230 3230 3230 3229
3202 3203 3205 3206 3207 3209 3211 3212 3213 3215 3216 3218 3220 3221 3223 3224 3226 3225 3227 3227 3228 3229 3229 3229 3230 3230 3231 3231 3232 3233 3232 3231 3231 3231 3232 3233 3233 3234 3234 3234 3233 3232 3231
3205 3206 3207 3208 3210 3212 3213 3214 3215 3215 3217 3219 3221 3223 3225 3226 3228 3228 3229 3230 3231 3231 3232 3232 3233 3234 3235 3235 3235 3235 3235 3235 3234 3235 3235 3236 3236 3237 3237 3236 3236 3235 3234
3207 3208 3209 3211 3212 3214 3215 3216 3216 3217 3218 3220 3223 3225 3227 3228 3230 3231 3232 3233 3234 3234 3235 3235 3236 3237 3238 3238 3238 3238 3238 3239 3239 3239 3239 3240 3240 3240 3240 3239 3238 3238 3237
3209 3210 3211 3212 3214 3216 3217 3218 3218 3219 3219 3221 3224 3228 3230 3231 3232 3233 3235 3235 3236 3237 3237 3238 3240 3240 3241 3241 3242 3242 3243 3243 3243 3244 3244 3244 3244 3243 3243 3242 3242 3241 3239
3210 3212 3213 3214 3216 3218 3220 3220 3220 3221 3221 3223 3226 3229 3232 3233 3235 3236 3238 3238 3238 3238 3240 3240 3242 3243 3243 3244 3245 3246 3247 3247 3247 3248 3247 3247 3247 3247 3246 3246 3244 3243 3242
3211 3213 3214 3216 3218 3219 3221 3222 3223 3223 3224 3225 3228 3231 3233 3235 3237 3238 3239 3240 3241 3241 3242 3243 3245 3245 3246 3247 3248 3249 3250 3251 3251 3251 3251 3250 3250 3250 3249 3248 3247 3246 3244
3212 3213 3216 3217 3219 3221 3222 3223 3225 3226 3227 3228 3230 3232 3235 3237 3239 3240 3241 3242 3243 3244 3245 3246 3247 3248 3248 3250 3251 3252 3253 3254 3255 3255 3254 3254 3253 3253 3253 3252 3251 3249 3247
3214 3215 3216 3218 3220 3222 3223 3224 3226 3228 3229 3230 3232 3234 3236 3239 3241 3241 3243 3244 3245 3246 3247 3249 3250 3251 3252 3253 3255 3256 3257 3257 3258 3258 3258 3257 3257 3256 3256 3255 3253 3251 3249
3215 3216 3216 3219 3221 3223 3224 3226 3227 3229 3231 3233 3234 3236 3238 3240 3242 3243 3245 3246 3248 3249 3250 3251 3253 3254 3255 3257 3258 3259 3260 3261 3261 3261 3261 3260 3260 3259 3259 3259 3257 3255 3252
3217 3218 3219 3220 3222 3223 3225 3227 3228 3230 3232 3234 3235 3237 3239 3241 3242 3244 3247 3248 3250 3251 3252 3253 3255 3257 3258 3259 3261 3262 3263 3264 3264 3265 3264 3264 3263 3263 3263 3261 3260 3258 3255
3218 3219 3220 3221 3223 3225 3226 3228 3230 3232 3233 3235 3237 3238 3240 3241 3243 3246 3248 3250 3252 3253 3254 3255 3257 3258 3260 3262 3264 3265 3266 3267 3268 3268 3268 3267 3267 3266 3266 3264 3262 3260 3257
3218 3219 3221 3223 3225 3226 3227 3229 3231 3233 3234 3235 3237 3240 3241 3242 3244 3247 3249 3251 3252 3254 3255 3257 3259 3261 3262 3264 3266 3268 3269 3271 3272 3272 3272 3271 3270 3269 3269 3267 3265 3263 3258
3218 3219 3221 3224 3225 3226 3228 3230 3232 3233 3235 3236 3237 3239 3241 3244 3245 3247 3249 3252 3253 3255 3257 3259 3260 3262 3264 3266 3269 3270 3272 3274 3275 3274 3274 3273 3273 3272 3271 3270 3268 3264 3261
3218 3219 3222 3225 3226 3227 3228 3231 3233 3235 3236 3237 3239 3240 3242 3244 3245 3247 3249 3252 3254 3256 3258 3260 3261 3263 3265 3267 3270 3272 3274 3275 3276 3276 3275 3275 3275 3274 3273 3272 3270 3267 3264
3218 3219 3221 3224 3227 3228 3231 3232 3234 3236 3238 3238 3240 3241 3242 3244 3245 3247 3249 3252 3254 3257 3259 3261 3262 3264 3266 3268 3271 3273 3274 3276 3276 3277 3278 3276 3276 3275 3274 3273 3271 3269 3266
3218 3220 3222 3224 3226 3229 3230 3232 3234 3236 3238 3239 3240 3242 3243 3244 3246 3247 3250 3251 3254 3256 3259 3261 3263 3265 3267 3269 3271 3273 3275 3276 3277 3277 3278 3278 3278 3277 3276 3274 3272 3271 3268
3216 3218 3222 3224 3226 3229 3231 3232 3234 3235 3237 3239 3240 3241 3243 3244 3246 3247 3249 3251 3253 3255 3257 3260 3263 3265 3267 3269 3271 3272 3274 3276 3278 3278 3278 3279 3278 3277 3277 3274 3273 3272 3270
Wind_Speed
17 17 16 14 11 10 11 11 14 18 20 21 23 26 24 24 20 19 18 18 18 16 17 18 18 18 19 19 20 21 20 18 17 16 16 16 16 17 16 15 15 15 14
14 15 13 12 10 10 10 11 15 17 20 20 20 21 20 22 21 17 17 20 17 18 18 19 20 20 19 18 19 19 18 17 16 15 14 15 16 15 15 15 14 13 13
14 14 13 12 11 11 10 11 14 15 17 18 19 18 18 18 17 17 17 18 18 19 19 19 20 20 19 19 18 17 16 16 16 14 13 13 15 14 14 14 14 14 13
14 12 11 11 9 10 10 10 12 14 16 17 18 17 18 18 18 18 18 18 19 19 20 20 19 18 18 18 17 16 16 16 15 14 14 13 14 15 14 14 14 13 13
13 11 11 11 10 9 11 10 11 14 19 17 16 17 18 17 17 18 18 19 19 20 20 19 19 18 18 17 16 16 15 16 15 14 14 14 15 15 15 14 14 14 13
12 11 11 11 10 9 10 11 12 13 16 15 15 16 17 16 16 17 18 18 18 19 21 21 18 17 16 16 15 16 16 16 15 15 15 15 15 14 14 15 14 14 13
12 10 9 10 9 9 11 12 12 12 13 12 13 14 16 15 15 16 17 18 18 18 18 17 16 15 16 15 14 15 15 15 15 15 14 14 14 14 14 14 15 14 14
11 9 8 8 10 12 12 14 13 12 13 14 15 15 15 14 14 14 14 16 17 17 16 15 16 15 16 15 14 14 15 15 15 16 16 16 15 14 14 15 15 15 15
13 11 9 10 13 13 13 13 12 11 12 13 15 15 15 14 13 13 13 14 15 16 15 15 16 17 15 15 15 15 16 16 17 17 17 17 16 16 17 17 16 15 15
14 12 11 12 15 13 13 11 11 11 12 12 15 17 16 15 13 13 13 13 14 15 14 14 15 16 15 16 15 16 18 19 19 20 20 19 19 18 18 16 15 15 14
13 13 13 13 13 13 12 11 10 11 12 13 15 16 16 15 13 13 12 12 13 13 14 14 14 15 15 16 16 17 19 21 21 22 22 21 20 19 17 15 14 14 14
12 12 13 13 12 11 11 11 12 11 13 13 15 16 17 16 14 13 13 12 11 12 13 15 16 16 15 16 17 19 21 22 23 23 21 20 19 17 16 15 15 14 13
11 12 12 12 12 11 10 10 8 10 10 14 16 17 17 16 15 14 13 12 10 11 14 16 16 16 16 17 18 20 23 24 22 22 20 18 17 16 15 15 15 14 13
11 12 11 12 12 10 9 9 10 12 14 16 19 19 18 17 15 14 11 9 9 10 12 14 14 16 17 18 19 21 22 22 21 19 18 17 16 15 15 14 14 14 12
10 11 12 13 11 11 9 8 10 13 16 18 20 19 18 17 15 14 12 10 9 10 10 14 15 14 16 18 22 22 22 20 19 18 17 17 15 15 14 13 13 12 13
8 10 11 12 12 11 11 9 10 14 15 17 19 19 18 16 15 14 9 9 10 11 12 12 13 15 17 18 21 22 21 19 18 16 16 16 15 14 13 14 12 13 16
7 9 9 11 9 11 12 10 11 11 11 13 17 18 18 16 13 12 9 10 10 10 12 14 15 15 17 19 21 21 19 18 17 16 15 15 15 15 15 13 14 15 16
6 8 8 12 11 11 12 11 12 10 11 10 15 16 16 14 12 11 9 12 12 12 13 16 15 17 18 21 21 20 18 17 16 15 14 14 14 15 16 16 16 17 19
7 6 9 12 10 9 11 10 12 12 11 12 13 14 14 12 11 12 9 12 13 12 12 15 16 17 19 21 20 18 17 15 14 14 14 14 14 15 17 17 16 17 19
4 4 8 11 8 7 11 11 10 11 12 12 12 12 13 12 11 12 13 13 12 11 12 14 15 17 18 19 18 16 15 13 13 14 15 14 14 15 14 14 14 16 20
2 3 6 8 9 10 10 6 8 9 11 12 12 13 12 13 12 13 14 14 12 13 13 13 14 15 17 17 16 15 13 11 11 13 13 13 12 12 12 12 12 15 20
1 4 6 8 9 9 11 8 10 9 10 11 12 13 13 12 15 14 15 14 11 15 13 14 13 14 16 16 16 13 12 10 10 11 11 10 9 9 8 9 10 15 18
1 4 6 9 10 10 9 8 8 8 7 7 9 12 12 13 15 15 14 13 11 17 13 14 13 15 17 16 16 13 11 8 9 9 9 9 7 6 6 7 9 13 16
2 7 9 9 9 10 11 10 9 9 8 7 8 9 12 14 15 15 14 14 11 14 14 15 13 14 16 17 16 13 12 10 10 11 8 7 6 5 4 6 11 12 15
3 7 10 11 10 9 10 12 11 7 6 7 5 7 10 15 15 14 15 15 12 13 13 13 14 15 16 16 15 14 13 12 12 12 10 7 6 3 3 6 9 12 14
8 7 13 13 12 11 12 13 10 9 9 8 7 5 7 12 16 17 17 16 14 13 13 17 16 16 16 16 15 14 14 13 10 9 8 5 3 2 1 3 7 11 13
Wind_Direction
135 128 123 118 117 107 103 97 92 99 104 97 106 118 110 100 93 93 87 95 98 103 105 105 106 104 104 104 106 100 97 94 92 91 92 94 96 96 98 97 97 97 96
137 129 124 118 116 117 111 104 102 111 111 102 103 102 102 104 103 91 90 90 92 97 99 101 103 103 103 103 102 101 99 97 92 89 91 96 97 98 98 92 92 94 88
133 125 123 121 123 124 119 111 110 117 116 104 101 102 107 106 100 94 100 98 97 99 102 104 104 105 105 104 100 96 98 95 94 90 89 93 95 94 91 91 89 87 89
131 128 125 128 131 133 129 125 119 121 127 112 103 102 105 101 95 91 95 96 95 101 103 104 104 102 103 101 96 98 98 97 95 90 88 89 90 90 88 86 90 88 87
131 129 129 132 135 136 133 135 128 123 136 120 109 108 107 104 98 93 95 97 98 102 100 106 103 99 102 100 104 102 100 100 96 93 90 87 88 86 90 92 90 88 86
127 125 129 132 133 131 129 132 132 134 141 126 118 113 111 107 103 99 95 101 102 106 105 109 102 92 98 104 103 102 101 101 99 92 86 85 85 87 90 88 86 84 82
119 119 122 129 130 138 131 132 133 138 142 140 129 120 115 115 106 99 96 105 104 105 108 108 105 99 108 101 104 105 104 100 96 92 88 86 85 85 88 87 84 82 82
119 110 111 121 133 142 137 133 132 134 143 144 140 131 122 119 113 106 97 103 107 109 111 113 109 102 105 99 102 106 103 99 97 94 89 87 89 90 86 82 83 82 80
122 113 101 108 128 139 137 134 135 133 142 150 144 137 135 130 123 110 105 104 110 112 115 115 111 106 102 100 103 101 102 99 96 93 93 93 91 88 87 86 84 83 80
127 122 113 112 123 128 134 133 133 138 142 147 151 146 146 136 126 113 109 107 110 115 116 115 112 106 103 100 103 103 99 97 96 95 96 94 93 91 89 86 83 78 74
131 127 122 119 122 126 131 135 144 150 151 151 156 154 144 139 132 122 114 109 111 116 116 122 118 109 107 103 103 101 98 98 98 97 97 96 94 92 90 85 80 74 70
134 129 127 127 128 129 128 120 120 137 145 154 156 156 149 144 135 127 117 109 107 114 113 122 116 113 106 104 105 102 100 99 99 98 97 96 96 93 87 83 78 75 70
131 129 126 126 129 130 124 121 120 126 140 156 154 154 149 144 138 125 117 114 110 110 115 128 122 116 112 108 105 104 104 103 101 98 97 94 91 88 86 82 80 75 67
132 130 127 128 125 125 125 121 123 119 125 136 148 148 150 145 136 132 121 115 103 110 108 108 119 113 111 110 107 106 106 106 103 100 96 93 90 88 85 82 74 65 58
123 135 135 127 129 131 129 124 126 122 125 133 142 147 150 148 146 138 134 133 118 109 111 107 116 117 119 120 116 115 111 107 104 102 98 93 90 85 81 74 66 62 57
129 137 141 146 136 139 140 135 135 126 124 136 146 153 155 154 151 144 143 137 118 121 120 113 121 127 128 125 121 118 116 111 105 101 98 94 89 83 75 67 61 57 56
143 129 149 156 158 149 145 143 146 143 137 143 154 157 157 157 156 155 145 143 129 118 128 125 131 132 131 128 125 121 118 113 108 103 100 97 93 85 77 71 65 58 54
100 117 101 156 156 163 152 139 154 154 152 161 160 163 161 161 165 161 150 145 144 133 133 127 135 134 133 133 132 129 125 118 115 112 106 99 92 86 77 64 57 51 49
75 129 134 142 143 162 152 148 144 150 151 158 157 159 162 169 163 160 157 152 159 146 137 135 138 139 141 140 140 135 129 126 123 115 103 96 91 84 78 70 55 52 51
61 139 164 165 151 130 159 152 151 155 162 160 148 155 164 164 164 166 172 169 163 158 153 146 150 148 145 146 145 140 133 129 124 115 107 98 91 85 78 73 63 57 54
85 151 192 181 157 138 161 167 158 159 159 166 159 160 156 155 158 166 173 176 169 166 158 153 156 153 153 154 151 148 135 130 123 115 110 100 95 89 78 71 66 59 54
148 169 195 204 172 158 147 162 173 172 168 157 161 175 171 169 169 174 172 181 181 172 160 163 165 166 158 157 160 155 147 143 131 126 123 114 104 101 89 74 63 57 50
206 191 193 212 191 184 166 161 167 170 170 168 165 176 182 178 177 179 183 186 175 171 170 171 164 168 165 164 168 165 164 160 148 145 133 134 125 119 101 73 54 50 47
208 203 199 202 204 198 176 171 160 162 157 180 183 175 183 180 181 182 184 172 177 182 181 178 170 171 170 169 171 175 175 171 155 147 148 143 145 136 112 72 42 31 37
234 206 217 193 206 204 193 188 184 193 194 183 187 189 191 188 187 182 180 191 192 190 193 183 178 177 178 175 176 181 182 182 172 159 163 167 166 139 86 78 48 23 21
211 229 220 208 193 207 205 202 193 193 199 185 179 177 188 190 196 192 191 198 208 204 195 199 191 186 189 187 185 186 189 193 192 197 188 191 186 204 347 42 37 13 7